Wahoo, NE

4:28 PM CDT on March 27, 2017 (GMT -0500)
Wahoo Municipal

Weather History for KAHQ - January, 2014

Change the Weather History Date:

Monday, January 13, 2014

  Actual Average Record
Temperature  
Mean Temperature 38 °F -  
Max Temperature 48 °F 30 °F 62 °F (1980)
Min Temperature 28 °F 9 °F -14 °F (1964)
Degree Days  
Heating Degree Days 27    
Moisture  
Dew Point 23 °F    
Average Humidity 56    
Maximum Humidity 78    
Minimum Humidity 34    
Precipitation  
Precipitation 0.00 in - - ()
Sea Level Pressure  
Sea Level Pressure 29.75 in    
Wind  
Wind Speed 11 mph (West)    
Max Wind Speed 17 mph    
Max Gust Speed 26 mph    
Visibility 10 miles    
Events      
Averages and records for this station are not official NWS values.
T = Trace of Precipitation, MM = Missing Value Source: NWS Daily Summary

Daily Weather History Graph

Daily Weather History Graph

Search for Another Location

Airport or City:

Trip Planner

Search our weather history database for the weather conditions in past years. The results will help you decide how hot, cold, wet, or windy it might be!

Date:

Astronomy

Jan. 13, 2014 Rise Set
Actual Time 7:50 AM CST 5:20 PM CST
Civil Twilight 7:19 AM CST 5:50 PM CST
Nautical Twilight 6:45 AM CST 6:24 PM CST
Astronomical Twilight 6:12 AM CST 6:57 PM CST
Moon 3:36 PM CST (1/13) 5:40 AM CST (1/13)
Length of Visible Light 10h 30m
Length of Day
9h 29m
Waxing Gibbous, 95% of the Moon is Illuminated
Jan 13
Waxing Gibbous
Jan 15
Full
Jan 23
Last Quarter
Jan 30
New
Feb 6
First Quarter

Hourly Weather History & Observations

Time (CST) Temp. Windchill Dew Point Humidity Pressure Visibility Wind Dir Wind Speed Gust Speed Precip Events Conditions
12:15 AM 43.5 °F 37.5 °F 25.5 °F 49% 29.66 in 10.0 mi NW 11.5 mph - N/A   Overcast
12:35 AM 41.7 °F 35.6 °F 25.3 °F 52% 29.66 in 10.0 mi NW 10.4 mph - N/A   Scattered Clouds
12:55 AM 41.2 °F 34.1 °F 25.2 °F 53% 29.68 in 10.0 mi NW 12.7 mph - N/A   Scattered Clouds
1:15 AM 41.2 °F 33.7 °F 24.6 °F 52% 29.68 in 10.0 mi NW 13.8 mph - N/A   Mostly Cloudy
1:35 AM 42.3 °F 34.8 °F 24.6 °F 50% 29.69 in 10.0 mi WNW 15.0 mph - N/A   Overcast
1:55 AM 41.0 °F 33.5 °F 24.6 °F 52% 29.70 in 10.0 mi WNW 13.8 mph - N/A   Overcast
2:15 AM 41.9 °F 34.6 °F 24.8 °F 51% 29.71 in 10.0 mi WNW 13.8 mph 19.6 mph N/A   Overcast
2:35 AM 41.2 °F 33.0 °F 24.6 °F 52% 29.71 in 10.0 mi WNW 16.1 mph 26.5 mph N/A   Mostly Cloudy
2:55 AM 39.4 °F 31.1 °F 24.8 °F 56% 29.71 in 10.0 mi NW 15.0 mph - N/A   Scattered Clouds
3:15 AM 38.7 °F 30.1 °F 25.2 °F 58% 29.72 in 10.0 mi NW 15.0 mph - N/A   Clear
3:35 AM 38.7 °F 30.9 °F 25.3 °F 59% 29.73 in 10.0 mi NW 12.7 mph - N/A   Scattered Clouds
3:55 AM 38.1 °F 29.5 °F 25.5 °F 61% 29.74 in 10.0 mi NW 15.0 mph - N/A   Scattered Clouds
4:15 AM 37.6 °F 28.1 °F 25.9 °F 63% 29.75 in 10.0 mi NW 17.3 mph 20.7 mph N/A   Clear
4:35 AM 36.7 °F 28.0 °F 26.4 °F 66% 29.76 in 10.0 mi NW 13.8 mph - N/A   Clear
4:55 AM 35.1 °F 26.4 °F 26.4 °F 71% 29.77 in 10.0 mi NW 12.7 mph - N/A   Clear
5:15 AM 34.0 °F 25.5 °F 26.6 °F 74% 29.78 in 10.0 mi WNW 11.5 mph - N/A   Clear
5:35 AM 34.0 °F 25.5 °F 26.1 °F 73% 29.79 in 10.0 mi NW 11.5 mph - N/A   Scattered Clouds
5:55 AM 34.2 °F 24.4 °F 26.6 °F 74% 29.80 in 10.0 mi NW 15.0 mph - N/A   Mostly Cloudy
6:15 AM 33.8 °F 24.3 °F 26.4 °F 74% 29.80 in 10.0 mi NW 13.8 mph - N/A   Scattered Clouds
6:35 AM 32.2 °F 23.8 °F 25.7 °F 77% 29.81 in 10.0 mi NNW 10.4 mph - N/A   Clear
6:55 AM 30.6 °F 22.4 °F 24.4 °F 78% 29.81 in 10.0 mi NW 9.2 mph 16.1 mph N/A   Clear
7:15 AM 30.7 °F 22.0 °F 23.7 °F 75% 29.81 in 10.0 mi NW 10.4 mph - N/A   Clear
7:35 AM 29.7 °F 21.3 °F 22.8 °F 76% 29.82 in 10.0 mi NW 9.2 mph - N/A   Clear
7:55 AM 29.1 °F 20.6 °F 22.5 °F 76% 29.83 in 10.0 mi NW 9.2 mph - N/A   Clear
8:15 AM 28.6 °F 20.7 °F 22.5 °F 78% 29.84 in 10.0 mi WNW 8.1 mph - N/A   Clear
8:35 AM 30.2 °F 24.3 °F 23.0 °F 75% 29.85 in 10.0 mi WNW 5.8 mph - N/A   Clear
8:55 AM 30.9 °F 25.2 °F 23.4 °F 74% 29.85 in 10.0 mi WNW 5.8 mph - N/A   Clear
9:15 AM 32.7 °F 25.0 °F 23.5 °F 69% 29.85 in 10.0 mi NW 9.2 mph - N/A   Clear
9:35 AM 33.8 °F 27.0 °F 23.9 °F 67% 29.86 in 10.0 mi WNW 8.1 mph - N/A   Clear
9:55 AM 34.9 °F 27.1 °F 24.6 °F 66% 29.86 in 10.0 mi WNW 10.4 mph - N/A   Clear
10:15 AM 35.6 °F 29.9 °F 25.2 °F 66% 29.86 in 10.0 mi WNW 6.9 mph - N/A   Clear
10:35 AM 36.5 °F 29.2 °F 25.9 °F 65% 29.86 in 10.0 mi West 10.4 mph - N/A   Clear
10:55 AM 37.8 °F 30.7 °F 26.2 °F 63% 29.86 in 10.0 mi West 10.4 mph - N/A   Clear
11:15 AM 38.8 °F 32.6 °F 24.3 °F 56% 29.85 in 10.0 mi West 9.2 mph - N/A   Clear
11:35 AM 39.7 °F 32.7 °F 23.0 °F 51% 29.84 in 10.0 mi West 11.5 mph - N/A   Clear
11:55 AM 41.2 °F 34.5 °F 21.6 °F 46% 29.83 in 10.0 mi West 11.5 mph - N/A   Clear
12:15 PM 41.9 °F 35.4 °F 22.3 °F 46% 29.83 in 10.0 mi West 11.5 mph - N/A   Clear
12:35 PM 43.0 °F 37.2 °F 21.2 °F 42% 29.81 in 10.0 mi WSW 10.4 mph - N/A   Clear
12:55 PM 43.9 °F 37.9 °F 20.1 °F 39% 29.80 in 10.0 mi West 11.5 mph - N/A   Clear
1:15 PM 45.3 °F 40.1 °F 21.4 °F 39% 29.78 in 10.0 mi West 10.4 mph - N/A   Clear
1:35 PM 45.9 °F 39.7 °F 21.7 °F 38% 29.76 in 10.0 mi West 13.8 mph - N/A   Clear
1:55 PM 46.2 °F 41.2 °F 21.7 °F 38% 29.76 in 10.0 mi WSW 10.4 mph 17.3 mph N/A   Clear
2:15 PM 46.0 °F 41.4 °F 21.7 °F 38% 29.76 in 10.0 mi WSW 9.2 mph - N/A   Clear
2:35 PM 47.1 °F - 22.3 °F 38% 29.75 in 10.0 mi SW 11.5 mph - N/A   Clear
2:55 PM 48.2 °F - 20.7 °F 34% 29.74 in 10.0 mi SW 11.5 mph - N/A   Clear
3:15 PM 48.2 °F - 21.2 °F 34% 29.74 in 10.0 mi SW 10.4 mph - N/A   Clear
3:35 PM 48.9 °F - 21.9 °F 35% 29.75 in 10.0 mi SSW 11.5 mph - N/A   Clear
3:55 PM 47.5 °F - 21.0 °F 35% 29.76 in 10.0 mi SW 13.8 mph - N/A   Scattered Clouds
4:15 PM 46.8 °F - 21.6 °F 37% 29.74 in 10.0 mi SSW 11.5 mph 16.1 mph N/A   Scattered Clouds
4:35 PM 46.4 °F 41.9 °F 21.6 °F 37% 29.74 in 10.0 mi SSW 9.2 mph - N/A   Mostly Cloudy
4:55 PM 44.6 °F 40.7 °F 22.1 °F 41% 29.73 in 10.0 mi South 6.9 mph - N/A   Scattered Clouds
5:15 PM 42.4 °F 37.5 °F 22.3 °F 45% 29.73 in 10.0 mi South 8.1 mph - N/A   Scattered Clouds
5:35 PM 37.4 °F 32.1 °F 21.0 °F 52% 29.72 in 10.0 mi South 6.9 mph - N/A   Scattered Clouds
5:55 PM 35.2 °F 29.5 °F 20.1 °F 54% 29.71 in 10.0 mi South 6.9 mph - N/A   Clear
6:15 PM 34.7 °F 28.8 °F 20.7 °F 57% 29.71 in 10.0 mi SSE 6.9 mph - N/A   Clear
6:35 PM 33.6 °F 26.8 °F 20.5 °F 59% 29.71 in 10.0 mi South 8.1 mph - N/A   Clear
6:55 PM 34.5 °F 28.6 °F 21.4 °F 59% 29.70 in 10.0 mi SSW 6.9 mph - N/A   Clear
7:15 PM 34.0 °F 28.8 °F 21.2 °F 60% 29.70 in 10.0 mi SW 5.8 mph - N/A   Clear
7:35 PM 36.9 °F 30.1 °F 21.7 °F 54% 29.70 in 10.0 mi SW 9.2 mph - N/A   Clear
7:55 PM 34.7 °F 28.8 °F 21.2 °F 58% 29.70 in 10.0 mi SW 6.9 mph - N/A   Clear
8:15 PM 34.2 °F 28.2 °F 21.2 °F 59% 29.70 in 10.0 mi WSW 6.9 mph - N/A   Clear
8:35 PM 36.1 °F 29.3 °F 21.6 °F 56% 29.70 in 10.0 mi SW 9.2 mph - N/A   Clear
8:55 PM 36.1 °F 29.3 °F 21.6 °F 56% 29.69 in 10.0 mi WSW 9.2 mph - N/A   Clear
9:15 PM 36.3 °F 29.5 °F 21.7 °F 56% 29.69 in 10.0 mi WSW 9.2 mph - N/A   Clear
9:35 PM 36.7 °F 29.4 °F 22.1 °F 56% 29.69 in 10.0 mi WSW 10.4 mph - N/A   Clear
9:55 PM 37.9 °F 30.9 °F 22.8 °F 55% 29.68 in 10.0 mi WSW 10.4 mph - N/A   Scattered Clouds
10:15 PM 39.2 °F 32.0 °F 23.4 °F 53% 29.68 in 10.0 mi WSW 11.5 mph - N/A   Mostly Cloudy
10:35 PM 39.2 °F 31.6 °F 23.5 °F 53% 29.69 in 10.0 mi West 12.7 mph - N/A   Overcast
10:55 PM 40.3 °F 33.4 °F 24.8 °F 54% 29.69 in 10.0 mi West 11.5 mph - N/A   Mostly Cloudy
11:15 PM 41.9 °F 35.4 °F 25.7 °F 53% 29.68 in 10.0 mi West 11.5 mph - N/A   Overcast
11:35 PM 40.8 °F 34.1 °F 25.7 °F 55% 29.67 in 10.0 mi West 11.5 mph - N/A   Scattered Clouds
11:55 PM 40.3 °F 33.4 °F 26.2 °F 57% 29.66 in 10.0 mi WSW 11.5 mph - N/A   Clear